CW0237 Weather Reports


Display with metric or nautical units.
time (UTC)temp
F
wind
direction
speed
MPH
gust
MPH
rain 1hr
in
rain 24hr
in
rain mn
in
humidity
%
barometer
mb
20260505014205 57 170 2.0 5.0 0.00 0.00 0.00 64 1009.6
20260505013204 58 180 2.0 6.0 0.00 0.00 0.00 63 1009.3
20260505012204 58 178 3.0 6.0 0.00 0.00 0.00 62 1009.3
20260505004704 60 175 2.0 3.0 0.00 0.00 0.00 58 1008.7
20260505003205 60 167 5.0 14.0 0.00 0.00 0.00 57 1008.4
20260505002204 61 179 2.0 5.0 0.00 0.00 0.00 56 1008.1
20260505001206 61 169 4.0 9.0 0.00 0.00 0.00 55 1007.7
20260505000204 62 208 4.0 12.0 0.00 0.00 0.00 54 1007.6
20260504235703 62 222 2.0 7.0 0.00 0.00 0.00 54 1007.5
20260504235203 62 228 3.0 8.0 0.00 0.00 0.00 53 1007.5
20260504232704 64 186 4.0 10.0 0.00 0.00 0.00 52 1007.0
20260504232205 64 0 4.0 9.0 0.00 0.00 0.00 51 1006.9
20260504230707 65 0 4.0 10.0 0.00 0.00 0.00 50 1006.8
20260504225703 66 0 4.0 9.0 0.00 0.00 0.00 50 1006.6
20260504224704 66 0 6.0 12.0 0.00 0.00 0.00 49 1006.5
20260504224203 67 0 5.0 12.0 0.00 0.00 0.00 49 1006.5
20260504223704 67 0 3.0 13.0 0.00 0.00 0.00 49 1006.4
20260504223204 67 0 5.0 10.0 0.00 0.00 0.00 48 1006.4
20260504222204 68 184 6.0 14.0 0.00 0.00 0.00 47 1006.2
20260504221706 68 171 5.0 10.0 0.00 0.00 0.00 46 1006.2
20260504220703 69 203 4.0 15.0 0.00 0.00 0.00 44 1006.2
20260504215706 69 216 7.0 14.0 0.00 0.00 0.00 44 1006.2
20260504215204 69 187 5.0 18.0 0.00 0.00 0.00 44 1006.1
20260504214203 69 232 5.0 12.0 0.00 0.00 0.00 43 1006.1
20260504213205 69 182 6.0 22.0 0.00 0.00 0.00 42 1006.2
20260504212705 70 176 6.0 14.0 0.00 0.00 0.00 41 1006.1
20260504212204 70 204 5.0 12.0 0.00 0.00 0.00 41 1006.1
20260504210205 72 229 5.0 15.0 0.00 0.00 0.00 37 1005.9
20260504205204 73 265 6.0 15.0 0.00 0.00 0.00 37 1005.7
20260504203704 72 198 6.0 13.0 0.00 0.00 0.00 36 1005.8
20260504203204 73 206 6.0 12.0 0.00 0.00 0.00 36 1005.8
20260504202704 73 228 3.0 12.0 0.00 0.00 0.00 36 1005.7
20260504195704 72 229 3.0 9.0 0.00 0.00 0.00 36 1006.1
20260504194705 73 180 7.0 15.0 0.00 0.00 0.00 34 1006.1
20260504194205 73 177 9.0 18.0 0.00 0.00 0.00 33 1005.9
20260504193704 73 174 4.0 10.0 0.00 0.00 0.00 35 1006.1
20260504193205 73 173 5.0 16.0 0.00 0.00 0.00 34 1006.0
20260504192705 73 221 4.0 15.0 0.00 0.00 0.00 35 1006.0
20260504185706 74 165 4.0 10.0 0.00 0.00 0.00 33 1006.1
20260504183705 74 271 3.0 7.0 0.00 0.00 0.00 35 1006.2
20260504182205 74 201 5.0 14.0 0.00 0.00 0.00 34 1006.3
20260504181204 73 255 5.0 15.0 0.00 0.00 0.00 34 1006.8
20260504180204 72 190 5.0 12.0 0.00 0.00 0.00 35 1006.6
20260504175706 72 178 7.0 18.0 0.00 0.00 0.00 34 1006.8
20260504175205 72 193 6.0 13.0 0.00 0.00 0.00 34 1006.9
20260504173705 72 176 6.0 18.0 0.00 0.00 0.00 35 1006.7
20260504172204 72 178 5.0 14.0 0.00 0.00 0.00 34 1006.8
20260504171705 72 261 5.0 12.0 0.00 0.00 0.00 35 1006.8
20260504150705 64 278 6.0 21.0 0.00 0.00 0.00 43 1008.3
20260504140704 61 189 6.0 12.0 0.00 0.00 0.00 47 1008.9
20260504140205 61 193 5.0 12.0 0.00 0.00 0.00 49 1008.9
20260504130707 56 217 2.0 9.0 0.00 0.00 0.00 54 1009.5
20260504120204 50 215 2.0 3.0 0.00 0.00 0.00 61 1010.0
20260504110704 47 0 2.0 5.0 0.00 0.00 0.00 64 1009.8
20260504110205 46 340 2.0 6.0 0.00 0.00 0.00 64 1009.7
20260504081205 45 291 1.0 2.0 0.00 0.00 0.00 63 1009.3
20260504070205 44 285 1.0 3.0 0.00 0.00 0.00 64 1009.1
20260504050705 41 330 1.0 3.0 0.00 0.00 0.00 71 1009.5
20260504044704 40 275 0.0 1.0 0.00 0.00 0.00 72 1009.5
20260504044204 40 275 1.0 2.0 0.00 0.00 0.00 72 1009.5
20260504042204 41 275 1.0 1.0 0.00 0.00 0.00 70 1009.2
20260504040205 41 274 1.0 2.0 0.00 0.00 0.00 69 1009.1
20260504035705 41 326 0.0 2.0 0.00 0.00 0.00 69 1009.1
20260504034706 41 275 1.0 2.0 0.00 0.00 0.00 67 1009.1
20260504034205 42 275 1.0 2.0 0.00 0.00 0.00 67 1009.0
20260504032706 42 274 1.0 2.0 0.00 0.00 0.00 66 1009.0
20260504031205 42 274 1.0 3.0 0.00 0.00 0.00 67 1008.8
20260504025204 42 274 0.0 2.0 0.00 0.00 0.00 66 1008.8
20260504024206 42 274 1.0 2.0 0.00 0.00 0.00 66 1008.7
20260504023705 42 274 1.0 2.0 0.00 0.00 0.00 65 1008.7
20260504022206 43 274 0.0 1.0 0.00 0.00 0.00 64 1008.6
20260504021705 43 275 0.0 1.0 0.00 0.00 0.00 63 1008.6
20260504021206 44 274 1.0 2.0 0.00 0.00 0.00 62 1008.6
20260504015205 44 275 0.0 2.0 0.00 0.00 0.00 60 1008.6